Cavalier, ND

3:49 AM CST on February 24, 2017 (GMT -0600)
Cavalier

Weather History for K2C8 - October, 2012

Change the Weather History Date:

Wednesday, October 31, 2012

  Actual Average (KGAF) Record (KGAF)
Temperature  
Mean Temperature 38 °F -  
Max Temperature 44 °F 48 °F 70 °F (1950)
Min Temperature 32 °F 29 °F 3 °F (1991)
Degree Days  
Heating Degree Days 27    
Moisture  
Dew Point 35 °F    
Average Humidity 86    
Maximum Humidity 100    
Minimum Humidity 75    
Precipitation  
Precipitation 0.00 in - - ()
Sea Level Pressure  
Sea Level Pressure 30.06 in    
Wind  
Wind Speed 17 mph (NNW)    
Max Wind Speed 22 mph    
Max Gust Speed 30 mph    
Visibility 8 miles    
Events      
Averages and records for this station are not official NWS values.
T = Trace of Precipitation, MM = Missing Value Source: NWS Daily Summary

Daily Weather History Graph

Daily Weather History Graph

Search for Another Location

Airport or City:

Trip Planner

Search our weather history database for the weather conditions in past years. The results will help you decide how hot, cold, wet, or windy it might be!

Date:

Astronomy

Oct. 31, 2012 Rise Set
Actual Time 8:16 AM CDT 6:10 PM CDT
Civil Twilight 7:43 AM CDT 6:43 PM CDT
Nautical Twilight 7:06 AM CDT 7:21 PM CDT
Astronomical Twilight 6:29 AM CDT 7:57 PM CDT
Moon 7:13 PM CDT (10/31) 10:08 AM CDT (10/31)
Length of Visible Light 11h 00m
Length of Day
9h 54m
Full, 97% of the Moon is Illuminated
Oct 31
Full
Nov 6
Last Quarter
Nov 13
New
Nov 20
First Quarter
Nov 28
Full

Hourly Weather History & Observations

Time (CDT) Temp. Windchill Dew Point Humidity Pressure Visibility Wind Dir Wind Speed Gust Speed Precip Events Conditions
12:15 AM - - - N/A% - - North - - N/A   Unknown
12:35 AM - - - N/A% - - North - - N/A   Unknown
12:55 AM - - - N/A% - - North - - N/A   Unknown
1:15 AM - - - N/A% - - North - - N/A   Unknown
1:35 AM - - - N/A% - - North - - N/A   Unknown
1:55 AM - - - N/A% - - North - - N/A   Unknown
2:15 AM - - - N/A% - - North - - N/A   Unknown
2:35 AM - - - N/A% - - North - - N/A   Unknown
2:55 AM - - - N/A% - - North - - N/A   Unknown
3:15 AM - - - N/A% - - North - - N/A   Unknown
3:35 AM - - - N/A% - - North - - N/A   Unknown
3:55 AM - - - N/A% - - North - - N/A   Unknown
4:15 AM - - - N/A% - - North - - N/A   Unknown
4:35 AM - - - N/A% - - North - - N/A   Unknown
4:55 AM - - - N/A% - - North - - N/A   Unknown
5:15 AM - - - N/A% - - North - - N/A   Unknown
5:35 AM - - - N/A% - - North - - N/A   Unknown
5:55 AM - - - N/A% - - North - - N/A   Unknown
6:15 AM - - - N/A% - - North - - N/A   Unknown
6:35 AM - - - N/A% - - North - - N/A   Unknown
6:55 AM - - - N/A% - - North - - N/A   Unknown
7:15 AM - - - N/A% - - North - - N/A   Unknown
7:35 AM - - - N/A% - - North - - N/A   Unknown
7:55 AM - - - N/A% - - North - - N/A   Unknown
8:15 AM - - - N/A% - - North - - N/A   Unknown
8:35 AM - - - N/A% - - North - - N/A   Unknown
8:55 AM - - - N/A% - - North - - N/A   Unknown
9:15 AM - - - N/A% - - North - - N/A   Unknown
9:35 AM - - - N/A% - - North - - N/A   Unknown
9:55 AM - - - N/A% - - North - - N/A   Unknown
10:15 AM - - - N/A% - - North - - N/A   Unknown
10:35 AM - - - N/A% - - North - - N/A   Unknown
10:55 AM - - - N/A% - - North - - N/A   Unknown
11:15 AM - - - N/A% - - North - - N/A   Unknown
11:35 AM - - - N/A% - - North - - N/A   Unknown
11:55 AM - - - N/A% - - North - - N/A   Unknown
12:15 PM - - - N/A% - - North - - N/A   Unknown
12:35 PM - - - N/A% - - North - - N/A   Unknown
12:55 PM - - - N/A% - - North - - N/A   Unknown
1:15 PM - - - N/A% - - North - - N/A   Unknown
1:35 PM - - - N/A% - - North - - N/A   Unknown
2:15 PM - - - N/A% - - North - - N/A   Unknown
2:35 PM 44.6 °F 37.8 °F 39.2 °F 81% 29.98 in - NNW 15.0 mph 18.4 mph N/A   Unknown
2:55 PM 44.6 °F 37.8 °F 39.2 °F 81% 29.98 in 10.0 mi NNW 15.0 mph - N/A   Unknown
3:15 PM 44.6 °F 36.4 °F 39.2 °F 81% 29.98 in 8.0 mi NNW 20.7 mph - N/A   Overcast
3:35 PM 44.6 °F 37.4 °F 39.2 °F 81% 29.99 in 5.0 mi NNW 16.1 mph 23.0 mph N/A   Overcast
3:55 PM 42.8 °F 34.8 °F 39.2 °F 87% 30.00 in 5.0 mi NNW 17.3 mph 24.2 mph N/A   Overcast
4:15 PM 41.0 °F 31.6 °F 39.2 °F 93% 30.00 in 5.0 mi NNW 20.7 mph 27.6 mph N/A   Overcast
4:35 PM 41.0 °F 32.8 °F 39.2 °F 93% 30.02 in 6.0 mi North 16.1 mph 24.2 mph N/A   Overcast
4:55 PM 41.0 °F 31.9 °F 39.2 °F 93% 30.02 in 7.0 mi North 19.6 mph 27.6 mph N/A   Overcast
5:15 PM 39.2 °F 29.3 °F 39.2 °F 100% 30.03 in 3.0 mi North 20.7 mph 29.9 mph N/A   Overcast
5:35 PM 39.2 °F 31.2 °F 39.2 °F 100% 30.04 in 2.0 mi NNW 13.8 mph 21.9 mph N/A   Overcast
5:55 PM 39.2 °F 29.8 °F 37.4 °F 93% 30.05 in 9.0 mi North 18.4 mph 25.3 mph N/A   Overcast
6:15 PM 39.2 °F 30.2 °F 35.6 °F 87% 30.06 in 10.0 mi NNW 17.3 mph 25.3 mph N/A   Overcast
6:35 PM 39.2 °F 29.8 °F 35.6 °F 87% 30.06 in 10.0 mi North 18.4 mph 27.6 mph N/A   Mostly Cloudy
6:55 PM 39.2 °F 29.6 °F 35.6 °F 87% 30.07 in 10.0 mi North 19.6 mph 25.3 mph N/A   Mostly Cloudy
7:15 PM 37.4 °F 26.6 °F 33.8 °F 87% 30.08 in 10.0 mi NNW 21.9 mph 28.8 mph N/A   Overcast
7:35 PM 37.4 °F 28.9 °F 33.8 °F 87% 30.09 in 10.0 mi North 13.8 mph 28.8 mph N/A   Overcast
7:55 PM 37.4 °F 27.8 °F 32.0 °F 81% 30.09 in 10.0 mi North 17.3 mph 26.5 mph N/A   Overcast
8:15 PM 37.4 °F 26.6 °F 32.0 °F 81% 30.09 in 10.0 mi North 21.9 mph 26.5 mph N/A   Overcast
8:35 PM 37.4 °F 27.8 °F 32.0 °F 81% 30.10 in 10.0 mi North 17.3 mph 29.9 mph N/A   Overcast
8:55 PM 37.4 °F 27.8 °F 32.0 °F 81% 30.10 in 10.0 mi North 17.3 mph 23.0 mph N/A   Overcast
9:15 PM 35.6 °F 25.5 °F 32.0 °F 87% 30.10 in 10.0 mi North 17.3 mph 25.3 mph N/A   Overcast
9:35 PM 35.6 °F 26.2 °F 32.0 °F 87% 30.11 in 10.0 mi North 15.0 mph 21.9 mph N/A   Overcast
9:55 PM 35.6 °F 26.6 °F 32.0 °F 87% 30.11 in 10.0 mi North 13.8 mph - N/A   Overcast
10:15 PM 35.6 °F 26.2 °F 32.0 °F 87% 30.11 in 10.0 mi North 15.0 mph 25.3 mph N/A   Overcast
10:35 PM 35.6 °F 26.2 °F 28.4 °F 75% 30.11 in 10.0 mi North 15.0 mph 25.3 mph N/A   Mostly Cloudy
11:15 PM 33.8 °F 23.9 °F 26.6 °F 75% 30.13 in 10.0 mi NNW 15.0 mph 21.9 mph N/A   Mostly Cloudy
11:35 PM 32.0 °F 19.8 °F 26.6 °F 80% 30.13 in 10.0 mi NNW 20.7 mph 27.6 mph N/A   Mostly Cloudy
11:55 PM 32.0 °F 21.2 °F 26.6 °F 80% 30.13 in 10.0 mi North 16.1 mph 26.5 mph N/A   Mostly Cloudy